Location: Rounton
(54.4000°N, 1.3500°W)
Time: 07:28:56
(UTC+00:00)

Vanguard 1 Rocket - Pass Details

Date: 09 December 2021
Orbit: 651 x 4224 km, 34.3° (Epoch: 19 January)

Event Time Altitude Azimuth Distance (km) Brightness Sun altitude
Rises 07:24:21 0° 266° (W) 6,058 11.1 -6.8°
Reaches altitude 10° 07:29:28 10° 251° (WSW) 5,613 11.0 -6.1°
Maximum altitude 07:40:51 20° 212° (SSW) 5,742 11.5 -4.7°
Drops below altitude 10° 07:55:32 10° 175° (S) 7,324 12.7 -3.0°
Sets 08:04:10 0° 162° (SSE) 8,459 13.4 -2.0°
